Location: Kuppenheim
(48.8299°N, 8.2568°E)
Time: 14:06:31
(UTC+00:00)

Cosmos 1242 Rocket - Pass Details

Date: 20 June 2021
Orbit: 446 x 483 km, 81.2° (Epoch: 30 July)

Event Time Altitude Azimuth Distance (km) Brightness Sun altitude
Rises 00:18:06 0° 355° (N) 2,523 7.7 -16.9°
Reaches altitude 10° 00:20:18 10° 4° (N) 1,647 6.5 -16.8°
Maximum altitude 00:23:40 36° 73° (ENE) 772 3.8 -16.7°
Enters shadow 00:25:59 17° 132° (SE) 1,268 4.4 -16.6°
